Regional Weather Roundup
Issued by NWS

Home | Current Version | Previous Version | Text Only | Print | Product List | Glossary Off
Versions: 1 2 3 4 5 6 7 8 9 10 11 12 13 14 15 16 17 18 19 20 21 22 23 24 25 26 27 28 29 30 31 32 33 34 35 36 37 38 39 40 41 42 43 44 45 46 47 48 49 50

000
ASUS43 KFSD 210002
RWRSD

WEATHER ROUNDUP FOR SOUTH DAKOTA
NATIONAL WEATHER SERVICE SIOUX FALLS SD
700 PM CDT MON APR 20 2015

NOTE: "FAIR" INDICATES FEW OR NO CLOUDS BELOW 12,000 FEET WITH NO
SIGNIFICANT WEATHER AND/OR OBSTRUCTIONS TO VISIBILITY.


SDZ001>005-009-010-012>017-210100-
NORTHWEST AND NORTH CENTRAL SOUTH DAKOTA

CITY           SKY/WX    TMP DP  RH WIND       PRES   REMARKS
BUFFALO          N/A     49  19  30 N21       29.78R
FAITH            N/A     49  15  25 NW22G29   29.81S
MOBRIDGE       SUNNY     53   2  12 N24G35    29.73S
$$

SDZ012>016-024>037-041>051-057-063-072>074-210100-
SOUTHWEST AND SOUTH CENTRAL SOUTH DAKOTA

CITY           SKY/WX    TMP DP  RH WIND       PRES   REMARKS
RAPID CTY ARPT SUNNY     52  21  29 N17G29    29.83S
PIERRE         SUNNY     53   6  15 NW25G36   29.76S
CUSTER         MOSUNNY   46  15  28 NW13G24   29.84R
ELLSWORTH AFB  MOSUNNY   52  20  28 N15G22    29.82S
PHILIP         CLOUDY    52  50  93 NW21G32   29.82S
PINE RIDGE     SUNNY     52  20  28 N7        29.83F
WINNER         CLOUDY    55  13  18 NW25G33   29.78S
$$

SDZ004>011-016>023-039-040-210100-
NORTHEAST SOUTH DAKOTA

CITY           SKY/WX    TMP DP  RH WIND       PRES   REMARKS
ABERDEEN       SUNNY     51  10  19 NW28G39   29.70S
WATERTOWN      PTSUNNY   45  26  47 N25G35    29.66R
BROOKINGS      MOSUNNY   46  25  42 NW25G35   29.66S
SISSETON         N/A     41  29  62 N23       29.64R
$$

SDZ017-020-022-023-036>040-048>070-210100-
SOUTHEAST SOUTH DAKOTA

CITY           SKY/WX    TMP DP  RH WIND       PRES   REMARKS
SIOUX FALLS    MOSUNNY   51  18  27 NW25G37   29.67R
HURON          SUNNY     52   4  14 N29       29.70R
MITCHELL       SUNNY     54   1  11 NW30G43   29.72S
YANKTON        SUNNY     54   7  15 NW29G36   29.72S
$$

ABBREVIATIONS USED IN REMARKS
   TC - TEMPERATURE IN CELSIUS
  WCI - WIND CHILL INDEX
   HX - HEAT INDEX
  VSB - VISIBILITY



USA.gov is the U.S. government's official web portal to all federal, state and local government web resources and services.